This is the latest recevied weather packets stored in our database for station/object WI5KEY. If no packets are shown the sender has not sent any weather packets the latest 10 day(s).
| Time | Temp. | Humidity | Pressure | Rain* | Wind** | Luminosity | Snow |
|---|---|---|---|---|---|---|---|
| 1778211028 | 17.78° C | 79% | 1015.4 hPa | 0 mm | - | - | - |
| 1778210128 | 17.78° C | 79% | 1015.4 hPa | 0 mm | - | - | - |
| 1778209228 | 17.78° C | 79% | 1015.1 hPa | 0 mm | - | - | - |
| 1778208327 | 18.33° C | 78% | 1014.9 hPa | 0 mm | - | - | - |
| 1778207426 | 18.89° C | 76% | 1014.5 hPa | 0 mm | - | - | - |
| 1778206524 | 18.89° C | 75% | 1014.4 hPa | 0 mm | - | - | - |
| 1778205630 | 19.44° C | 75% | 1014 hPa | 0 mm | - | - | - |
| 1778204725 | 19.44° C | 74% | 1013.6 hPa | 0 mm | - | - | - |
| 1778203823 | 19.44° C | 73% | 1012.9 hPa | 0 mm | - | - | - |
| 1778202922 | 19.44° C | 72% | 1013.1 hPa | 0 mm | - | - | - |
| 1778202024 | 19.44° C | 71% | 1012.6 hPa | 0 mm | - | - | - |
| 1778201120 | 20° C | 70% | 1013.1 hPa | 0 mm | - | - | - |
| 1778200218 | 20° C | 68% | 1014 hPa | 0 mm | - | - | - |
| 1778199335 | 20.56° C | 68% | 1014.3 hPa | 0 mm | - | - | - |
| 1778198476 | 20.56° C | 68% | 1014.7 hPa | 0 mm | - | - | - |
| 1778197517 | 20.56° C | 69% | 1015.1 hPa | 0 mm | - | - | - |
| 1778196617 | 20.56° C | 68% | 1015.2 hPa | 0 mm | - | - | - |
| 1778195713 | 20° C | 69% | 1014.7 hPa | 0 mm | - | - | - |
| 1778194813 | 20° C | 68% | 1014.8 hPa | 0 mm | - | - | - |
| 1778193912 | 20° C | 68% | 1015.2 hPa | 0 mm | - | - | - |
| 1778193011 | 20° C | 69% | 1015.3 hPa | 0 mm | - | - | - |
| 1778192110 | 20.56° C | 70% | 1015.6 hPa | 0 mm | - | - | - |
| 1778191220 | 20.56° C | 70% | 1015.5 hPa | 0 mm | - | - | - |
| 1778190310 | 20.56° C | 69% | 1015.5 hPa | 0 mm | - | - | - |
| 1778189410 | 21.11° C | 72% | 1015.4 hPa | 0 mm | - | - | - |
* Rain latest hour (hover to see other rain measurements)
** Current wind speed in m/s (hover to see current wind gust speed)